Location: Newark
(46.4833°N, 6.4167°E)
Time: 01:15:49
(UTC+00:00)

ISS - Visible Passes

Search period start: 07 December 2019 00:00
Search period end: 17 December 2019 00:00
Orbit: 411 x 421 km, 51.6° (Epoch: 07 December)

Date Brightness Start Highest point End Pass type
(mag) Time Alt. Az. Time Alt. Az. Time Alt. Az.
07 Dec -3.4 16:37:41 10° WNW 16:40:56 48° NNE 16:44:04 11° E visible
07 Dec -2.1 18:14:30 10° WNW 18:17:00 34° WSW 18:17:00 34° WSW visible
08 Dec -3.4 17:25:55 10° WNW 17:29:15 61° SSW 17:31:03 24° SE visible
09 Dec -3.8 16:37:24 10° WNW 16:40:46 88° NNE 16:44:08 10° ESE visible
09 Dec -1.1 18:14:54 10° W 18:17:07 17° SW 18:18:19 14° SSW visible
10 Dec -1.6 17:25:56 10° W 17:28:47 26° SW 17:31:39 10° SSE visible
11 Dec -2.4 16:37:13 10° WNW 16:40:24 41° SW 16:43:34 10° SE visible
12 Dec -0.3 17:27:05 10° WSW 17:28:06 11° SW 17:29:07 10° SSW visible
13 Dec -0.6 16:37:26 10° W 16:39:47 18° SW 16:42:08 10° S visible
